| time (UTC) | temp F | wind direction | speed MPH | gust MPH | rain 1hr in | rain 24hr in | rain mn in | humidity % | barometer mb |
| 20260905231307 | 64 | 260 | 2.0 | 5.0 | 0.00 | 0.00 | 0.00 | 6 | 1020.2 |
| 20260905230808 | 64 | 287 | 2.0 | 10.0 | 0.00 | 0.00 | 0.00 | 6 | 1019.8 |
| 20260905230307 | 64 | 286 | 2.0 | 10.0 | 0.00 | 0.00 | 0.00 | 6 | 1019.9 |
| 20260905225807 | 64 | 279 | 4.0 | 11.0 | 0.00 | 0.00 | 0.00 | 6 | 1019.8 |
| 20260905225307 | 64 | 251 | 2.0 | 11.0 | 0.00 | 0.00 | 0.00 | 6 | 1019.9 |
| 20260905224807 | 64 | 227 | 3.0 | 9.0 | 0.00 | 0.00 | 0.00 | 6 | 1019.7 |
| 20260905224307 | 64 | 267 | 4.0 | 10.0 | 0.00 | 0.00 | 0.00 | 6 | 1019.8 |
| 20260905223807 | 64 | 278 | 2.0 | 11.0 | 0.00 | 0.00 | 0.00 | 6 | 1019.7 |
| 20260905223307 | 65 | 272 | 6.0 | 9.0 | 0.00 | 0.00 | 0.00 | 6 | 1020.0 |
| 20260905222807 | 65 | 275 | 5.0 | 9.0 | 0.00 | 0.00 | 0.00 | 6 | 1020.0 |
| 20260905222307 | 65 | 329 | 4.0 | 12.0 | 0.00 | 0.00 | 0.00 | 6 | 1019.7 |
| 20260905221807 | 65 | 283 | 6.0 | 10.0 | 0.00 | 0.01 | 0.00 | 6 | 1020.0 |
| 20260905221307 | 64 | 12 | 4.0 | 6.0 | 0.00 | 0.01 | 0.00 | 6 | 1020.0 |
| 20260905220807 | 64 | 287 | 2.0 | 8.0 | 0.00 | 0.01 | 0.00 | 6 | 1019.8 |
| 20260905220307 | 64 | 261 | 3.0 | 6.0 | 0.00 | 0.01 | 0.00 | 6 | 1019.8 |
| 20260905215807 | 64 | 281 | 3.0 | 6.0 | 0.00 | 0.01 | 0.01 | 6 | 1020.0 |
| 20260905215307 | 64 | 273 | 3.0 | 5.0 | 0.00 | 0.01 | 0.01 | 6 | 1020.0 |
| 20260905214807 | 64 | 283 | 2.0 | 6.0 | 0.00 | 0.01 | 0.01 | 6 | 1019.7 |
| 20260905214307 | 64 | 292 | 3.0 | 4.0 | 0.00 | 0.01 | 0.01 | 6 | 1019.9 |
| 20260905213807 | 64 | 267 | 2.0 | 3.0 | 0.00 | 0.01 | 0.01 | 5 | 1019.7 |
| 20260905213307 | 64 | 258 | 4.0 | 9.0 | 0.00 | 0.01 | 0.01 | 5 | 1019.6 |
| 20260905212807 | 64 | 261 | 4.0 | 8.0 | 0.00 | 0.01 | 0.01 | 5 | 1019.6 |
| 20260905212307 | 64 | 309 | 4.0 | 8.0 | 0.00 | 0.01 | 0.01 | 5 | 1019.4 |
| 20260905211807 | 65 | 263 | 2.0 | 5.0 | 0.00 | 0.01 | 0.01 | 5 | 1019.7 |
| 20260905211307 | 65 | 249 | 2.0 | 5.0 | 0.00 | 0.01 | 0.01 | 5 | 1019.3 |
| 20260905210807 | 65 | 285 | 4.0 | 6.0 | 0.00 | 0.01 | 0.01 | 5 | 1019.4 |
| 20260905210307 | 65 | 306 | 1.0 | 6.0 | 0.00 | 0.01 | 0.01 | 5 | 1019.2 |
| 20260905205807 | 66 | 272 | 2.0 | 5.0 | 0.00 | 0.01 | 0.01 | 5 | 1019.1 |
| 20260905205307 | 66 | 316 | 2.0 | 10.0 | 0.00 | 0.01 | 0.01 | 5 | 1019.3 |
| 20260905204807 | 66 | 279 | 3.0 | 8.0 | 0.00 | 0.01 | 0.01 | 5 | 1019.3 |
| 20260905204307 | 66 | 312 | 3.0 | 11.0 | 0.00 | 0.01 | 0.01 | 5 | 1019.5 |
| 20260905203806 | 66 | 268 | 2.0 | 10.0 | 0.00 | 0.01 | 0.01 | 5 | 1019.3 |
| 20260905203306 | 66 | 308 | 4.0 | 13.0 | 0.00 | 0.01 | 0.01 | 5 | 1019.0 |
| 20260905202306 | 66 | 298 | 3.0 | 8.0 | 0.00 | 0.01 | 0.01 | 5 | 1019.1 |
| 20260905201806 | 66 | 1 | 6.0 | 12.0 | 0.00 | 0.01 | 0.01 | 5 | 1019.0 |
| 20260905201306 | 66 | 296 | 5.0 | 11.0 | 0.00 | 0.01 | 0.01 | 5 | 1019.1 |
| 20260905200806 | 66 | 333 | 7.0 | 15.0 | 0.00 | 0.01 | 0.01 | 6 | 1018.8 |
| 20260905200306 | 66 | 307 | 7.0 | 12.0 | 0.00 | 0.01 | 0.01 | 6 | 1019.0 |
| 20260905195806 | 66 | 309 | 6.0 | 12.0 | 0.00 | 0.01 | 0.01 | 6 | 1018.9 |
| 20260905195307 | 66 | 280 | 4.0 | 9.0 | 0.00 | 0.01 | 0.01 | 6 | 1018.8 |
| 20260905194806 | 66 | 313 | 3.0 | 6.0 | 0.00 | 0.01 | 0.01 | 6 | 1018.6 |
| 20260905194306 | 66 | 309 | 4.0 | 11.0 | 0.00 | 0.01 | 0.01 | 6 | 1018.7 |
| 20260905193806 | 66 | 268 | 2.0 | 8.0 | 0.00 | 0.01 | 0.01 | 6 | 1018.4 |
| 20260905193306 | 66 | 231 | 7.0 | 11.0 | 0.00 | 0.01 | 0.01 | 6 | 1018.6 |
| 20260905192806 | 66 | 318 | 6.0 | 12.0 | 0.00 | 0.01 | 0.01 | 6 | 1018.5 |
| 20260905192306 | 66 | 317 | 2.0 | 8.0 | 0.00 | 0.01 | 0.01 | 6 | 1018.5 |
| 20260905191806 | 66 | 293 | 5.0 | 13.0 | 0.00 | 0.01 | 0.01 | 6 | 1018.3 |
| 20260905191306 | 66 | 301 | 4.0 | 8.0 | 0.00 | 0.01 | 0.01 | 6 | 1018.5 |
| 20260905190806 | 66 | 279 | 3.0 | 6.0 | 0.00 | 0.01 | 0.01 | 6 | 1018.4 |
| 20260905190306 | 66 | 276 | 4.0 | 8.0 | 0.00 | 0.01 | 0.01 | 6 | 1018.3 |
| 20260905185806 | 66 | 0 | 4.0 | 5.0 | 0.00 | 0.01 | 0.01 | 6 | 1018.2 |
| 20260905185306 | 66 | 251 | 2.0 | 13.0 | 0.00 | 0.01 | 0.01 | 6 | 1018.4 |
| 20260905184806 | 66 | 271 | 2.0 | 8.0 | 0.00 | 0.01 | 0.01 | 6 | 1018.3 |
| 20260905184306 | 66 | 266 | 2.0 | 8.0 | 0.00 | 0.01 | 0.01 | 6 | 1018.4 |
| 20260905183806 | 66 | 273 | 2.0 | 9.0 | 0.00 | 0.01 | 0.01 | 6 | 1018.2 |
| 20260905183306 | 66 | 323 | 4.0 | 9.0 | 0.00 | 0.01 | 0.01 | 5 | 1018.1 |
| 20260905182806 | 66 | 255 | 3.0 | 6.0 | 0.00 | 0.01 | 0.01 | 5 | 1017.8 |
| 20260905182306 | 66 | 315 | 3.0 | 5.0 | 0.00 | 0.01 | 0.01 | 5 | 1017.9 |
| 20260905181806 | 66 | 317 | 2.0 | 8.0 | 0.00 | 0.01 | 0.01 | 5 | 1017.9 |
| 20260905181305 | 66 | 262 | 1.0 | 8.0 | 0.00 | 0.01 | 0.01 | 5 | 1017.8 |
| 20260905180805 | 66 | 33 | 2.0 | 4.0 | 0.00 | 0.01 | 0.01 | 5 | 1017.7 |
| 20260905180305 | 66 | 322 | 3.0 | 5.0 | 0.00 | 0.01 | 0.01 | 5 | 1017.8 |
| 20260905175806 | 66 | 316 | 5.0 | 6.0 | 0.00 | 0.01 | 0.01 | 5 | 1017.8 |
| 20260905175306 | 66 | 283 | 4.0 | 8.0 | 0.00 | 0.01 | 0.01 | 5 | 1017.6 |
| 20260905174805 | 66 | 312 | 2.0 | 8.0 | 0.00 | 0.01 | 0.01 | 5 | 1017.4 |
| 20260905174305 | 66 | 304 | 5.0 | 8.0 | 0.00 | 0.01 | 0.01 | 5 | 1017.3 |
| 20260905173805 | 67 | 292 | 3.0 | 5.0 | 0.00 | 0.01 | 0.01 | 5 | 1017.3 |
| 20260905173305 | 67 | 86 | 4.0 | 5.0 | 0.00 | 0.01 | 0.01 | 5 | 1017.3 |
| 20260905172805 | 67 | 355 | 4.0 | 8.0 | 0.00 | 0.01 | 0.01 | 5 | 1017.2 |
| 20260905172305 | 67 | 295 | 1.0 | 3.0 | 0.00 | 0.01 | 0.01 | 5 | 1017.0 |
| 20260905171805 | 67 | 266 | 2.0 | 5.0 | 0.00 | 0.01 | 0.01 | 5 | 1017.2 |
| 20260905171305 | 68 | 284 | 2.0 | 4.0 | 0.00 | 0.01 | 0.01 | 5 | 1017.0 |
| 20260905170805 | 68 | 279 | 2.0 | 3.0 | 0.00 | 0.01 | 0.01 | 5 | 1017.3 |
| 20260905170305 | 68 | 269 | 1.0 | 5.0 | 0.00 | 0.01 | 0.01 | 5 | 1017.4 |
| 20260905165805 | 68 | 286 | 2.0 | 5.0 | 0.00 | 0.01 | 0.01 | 5 | 1016.9 |
| 20260905165306 | 68 | 333 | 3.0 | 6.0 | 0.00 | 0.01 | 0.01 | 5 | 1016.9 |
| 20260905164805 | 68 | 308 | 2.0 | 5.0 | 0.00 | 0.01 | 0.01 | 5 | 1016.8 |
| 20260905164305 | 69 | 264 | 2.0 | 4.0 | 0.00 | 0.01 | 0.01 | 5 | 1016.7 |
| 20260905163805 | 69 | 2 | 2.0 | 3.0 | 0.00 | 0.01 | 0.01 | 5 | 1016.7 |
| 20260905163305 | 69 | 229 | 3.0 | 5.0 | 0.00 | 0.01 | 0.01 | 5 | 1016.6 |
| 20260905162805 | 69 | 291 | 4.0 | 6.0 | 0.00 | 0.01 | 0.01 | 5 | 1016.6 |
| 20260905162306 | 69 | 258 | 3.0 | 8.0 | 0.00 | 0.01 | 0.01 | 5 | 1016.6 |
| 20260905161805 | 69 | 239 | 2.0 | 4.0 | 0.00 | 0.01 | 0.01 | 5 | 1016.6 |
| 20260905161305 | 69 | 295 | 1.0 | 5.0 | 0.00 | 0.01 | 0.01 | 5 | 1017.0 |
| 20260905160805 | 69 | 359 | 2.0 | 6.0 | 0.00 | 0.01 | 0.01 | 5 | 1016.7 |
| 20260905160305 | 69 | 326 | 6.0 | 8.0 | 0.00 | 0.01 | 0.01 | 5 | 1016.6 |
| 20260905155805 | 69 | 276 | 2.0 | 6.0 | 0.00 | 0.01 | 0.01 | 5 | 1016.8 |
| 20260905155306 | 69 | 318 | 3.0 | 8.0 | 0.00 | 0.01 | 0.01 | 5 | 1016.7 |
| 20260905154805 | 70 | 290 | 1.0 | 6.0 | 0.00 | 0.01 | 0.01 | 5 | 1016.5 |
| 20260905154305 | 70 | 8 | 4.0 | 9.0 | 0.00 | 0.01 | 0.01 | 5 | 1016.5 |
| 20260905153805 | 70 | 268 | 3.0 | 9.0 | 0.00 | 0.01 | 0.01 | 5 | 1016.6 |
| 20260905153305 | 70 | 316 | 4.0 | 6.0 | 0.00 | 0.01 | 0.01 | 5 | 1016.5 |
| 20260905152804 | 70 | 282 | 2.0 | 8.0 | 0.00 | 0.01 | 0.01 | 5 | 1016.4 |
| 20260905152306 | 70 | 318 | 2.0 | 6.0 | 0.00 | 0.01 | 0.01 | 5 | 1016.5 |
| 20260905151805 | 70 | 247 | 3.0 | 8.0 | 0.00 | 0.01 | 0.01 | 5 | 1016.8 |
| 20260905151304 | 70 | 63 | 2.0 | 6.0 | 0.00 | 0.01 | 0.01 | 5 | 1016.6 |
| 20260905150804 | 70 | 352 | 4.0 | 8.0 | 0.00 | 0.01 | 0.01 | 5 | 1016.3 |
| 20260905150304 | 69 | 85 | 2.0 | 3.0 | 0.00 | 0.01 | 0.01 | 5 | 1016.6 |
| 20260905145804 | 69 | 358 | 6.0 | 10.0 | 0.00 | 0.01 | 0.01 | 4 | 1016.5 |
| 20260905145306 | 70 | 356 | 3.0 | 11.0 | 0.00 | 0.01 | 0.01 | 5 | 1016.6 |
| 20260905144804 | 70 | 57 | 2.0 | 6.0 | 0.00 | 0.01 | 0.01 | 5 | 1016.5 |
| 20260905144304 | 70 | 306 | 3.0 | 9.0 | 0.00 | 0.01 | 0.01 | 4 | 1016.4 |
| 20260905143804 | 70 | 258 | 1.0 | 10.0 | 0.00 | 0.01 | 0.01 | 4 | 1016.4 |
| 20260905143304 | 71 | 1 | 8.0 | 11.0 | 0.00 | 0.01 | 0.01 | 4 | 1016.2 |
| 20260905142804 | 71 | 322 | 9.0 | 17.0 | 0.00 | 0.01 | 0.01 | 4 | 1016.1 |
| 20260905142306 | 71 | 242 | 1.0 | 5.0 | 0.00 | 0.01 | 0.01 | 4 | 1016.2 |
| 20260905141804 | 71 | 320 | 2.0 | 5.0 | 0.00 | 0.01 | 0.01 | 4 | 1016.3 |
| 20260905141304 | 71 | 3 | 6.0 | 10.0 | 0.00 | 0.01 | 0.01 | 4 | 1016.2 |
| 20260905140804 | 72 | 81 | 4.0 | 9.0 | 0.00 | 0.01 | 0.01 | 4 | 1016.3 |
| 20260905140304 | 72 | 42 | 4.0 | 9.0 | 0.00 | 0.01 | 0.01 | 4 | 1016.5 |
| 20260905135804 | 72 | 261 | 3.0 | 5.0 | 0.00 | 0.01 | 0.01 | 4 | 1016.4 |
| 20260905135306 | 72 | 162 | 3.0 | 10.0 | 0.00 | 0.01 | 0.01 | 4 | 1016.1 |
| 20260905134804 | 72 | 350 | 4.0 | 6.0 | 0.00 | 0.01 | 0.01 | 4 | 1016.1 |
| 20260905134304 | 72 | 218 | 2.0 | 10.0 | 0.00 | 0.01 | 0.01 | 4 | 1016.0 |
| 20260905133804 | 73 | 344 | 6.0 | 13.0 | 0.00 | 0.01 | 0.01 | 4 | 1016.1 |
| 20260905133304 | 73 | 261 | 4.0 | 5.0 | 0.00 | 0.01 | 0.01 | 4 | 1016.0 |
| 20260905132804 | 73 | 4 | 2.0 | 8.0 | 0.00 | 0.01 | 0.01 | 4 | 1016.0 |
| 20260905132305 | 72 | 315 | 6.0 | 9.0 | 0.00 | 0.01 | 0.01 | 4 | 1015.9 |
| 20260905131804 | 72 | 26 | 1.0 | 4.0 | 0.00 | 0.01 | 0.01 | 4 | 1015.9 |
| 20260905131304 | 72 | 329 | 4.0 | 10.0 | 0.00 | 0.01 | 0.01 | 4 | 1015.8 |
| 20260905130804 | 71 | 272 | 5.0 | 11.0 | 0.00 | 0.01 | 0.01 | 4 | 1016.1 |
| 20260905130303 | 71 | 326 | 8.0 | 10.0 | 0.00 | 0.01 | 0.01 | 4 | 1016.2 |
| 20260905125803 | 71 | 343 | 5.0 | 10.0 | 0.00 | 0.01 | 0.01 | 4 | 1015.9 |
| 20260905125306 | 71 | 323 | 5.0 | 8.0 | 0.00 | 0.01 | 0.01 | 5 | 1015.9 |
| 20260905124803 | 70 | 102 | 1.0 | 6.0 | 0.00 | 0.01 | 0.01 | 5 | 1016.2 |
| 20260905124303 | 69 | 45 | 4.0 | 9.0 | 0.00 | 0.01 | 0.01 | 5 | 1016.4 |
| 20260905123803 | 69 | 349 | 4.0 | 15.0 | 0.00 | 0.01 | 0.01 | 5 | 1016.6 |
| 20260905123303 | 69 | 221 | 4.0 | 9.0 | 0.00 | 0.01 | 0.01 | 5 | 1016.3 |
| 20260905122803 | 69 | 297 | 5.0 | 10.0 | 0.00 | 0.01 | 0.01 | 5 | 1016.5 |
| 20260905122306 | 69 | 318 | 7.0 | 10.0 | 0.00 | 0.01 | 0.01 | 5 | 1016.6 |
| 20260905121803 | 69 | 57 | 6.0 | 13.0 | 0.00 | 0.01 | 0.01 | 5 | 1016.3 |
| 20260905121303 | 69 | 277 | 5.0 | 12.0 | 0.00 | 0.01 | 0.01 | 5 | 1016.5 |
| 20260905120804 | 69 | 343 | 6.0 | 15.0 | 0.00 | 0.01 | 0.01 | 5 | 1016.4 |
| 20260905120303 | 68 | 342 | 4.0 | 14.0 | 0.00 | 0.01 | 0.01 | 6 | 1016.4 |
| 20260905115803 | 67 | 17 | 3.0 | 5.0 | 0.01 | 0.01 | 0.01 | 6 | 1016.6 |
| 20260905115306 | 66 | 332 | 3.0 | 11.0 | 0.01 | 0.01 | 0.01 | 6 | 1016.7 |
| 20260905114803 | 64 | 288 | 7.0 | 9.0 | 0.01 | 0.01 | 0.01 | 6 | 1016.7 |
| 20260905114303 | 63 | 306 | 6.0 | 11.0 | 0.01 | 0.01 | 0.01 | 6 | 1017.2 |
| 20260905113803 | 63 | 296 | 5.0 | 10.0 | 0.01 | 0.01 | 0.01 | 6 | 1017.1 |
| 20260905113303 | 62 | 338 | 4.0 | 9.0 | 0.01 | 0.01 | 0.01 | 6 | 1017.3 |
| 20260905112803 | 62 | 1 | 6.0 | 8.0 | 0.01 | 0.01 | 0.01 | 6 | 1017.3 |
| 20260905112305 | 62 | 279 | 1.0 | 6.0 | 0.01 | 0.01 | 0.01 | 6 | 1017.3 |
| 20260905111803 | 62 | 350 | 4.0 | 6.0 | 0.01 | 0.01 | 0.01 | 6 | 1017.0 |
| 20260905111303 | 63 | 276 | 4.0 | 5.0 | 0.01 | 0.01 | 0.01 | 6 | 1016.8 |
| 20260905110803 | 64 | 346 | 2.0 | 4.0 | 0.01 | 0.01 | 0.01 | 6 | 1017.1 |
| 20260905110303 | 66 | 271 | 3.0 | 11.0 | 0.00 | 0.00 | 0.00 | 5 | 1016.8 |
| 20260905105803 | 67 | 307 | 6.0 | 12.0 | 0.00 | 0.00 | 0.00 | 5 | 1016.7 |
| 20260905105306 | 68 | 328 | 2.0 | 8.0 | 0.00 | 0.00 | 0.00 | 5 | 1016.5 |
| 20260905104803 | 68 | 332 | 2.0 | 4.0 | 0.00 | 0.00 | 0.00 | 5 | 1016.6 |
| 20260905104302 | 69 | 340 | 8.0 | 11.0 | 0.00 | 0.00 | 0.00 | 4 | 1016.2 |
| 20260905103803 | 69 | 359 | 5.0 | 18.0 | 0.00 | 0.00 | 0.00 | 4 | 1016.2 |
| 20260905103303 | 70 | 326 | 9.0 | 11.0 | 0.00 | 0.00 | 0.00 | 4 | 1016.0 |
| 20260905102803 | 70 | 329 | 5.0 | 8.0 | 0.00 | 0.00 | 0.00 | 4 | 1016.2 |
| 20260905102306 | 70 | 296 | 11.0 | 17.0 | 0.00 | 0.00 | 0.00 | 4 | 1016.1 |
| 20260905101802 | 70 | 260 | 8.0 | 14.0 | 0.00 | 0.00 | 0.00 | 4 | 1016.3 |
| 20260905101302 | 70 | 340 | 8.0 | 12.0 | 0.00 | 0.00 | 0.00 | 4 | 1016.1 |
| 20260905100802 | 71 | 356 | 3.0 | 18.0 | 0.00 | 0.00 | 0.00 | 4 | 1016.3 |
| 20260905100302 | 71 | 301 | 5.0 | 9.0 | 0.00 | 0.00 | 0.00 | 4 | 1016.2 |
| 20260905095802 | 71 | 30 | 8.0 | 25.0 | 0.00 | 0.00 | 0.00 | 4 | 1016.1 |
| 20260905095305 | 72 | 281 | 4.0 | 11.0 | 0.00 | 0.00 | 0.00 | 4 | 1016.4 |
| 20260905094802 | 71 | 323 | 10.0 | 14.0 | 0.00 | 0.00 | 0.00 | 4 | 1016.4 |
| 20260905094302 | 70 | 304 | 4.0 | 10.0 | 0.00 | 0.00 | 0.00 | 5 | 1016.4 |
| 20260905093802 | 69 | 9 | 4.0 | 17.0 | 0.00 | 0.00 | 0.00 | 5 | 1016.4 |
| 20260905093302 | 69 | 356 | 8.0 | 12.0 | 0.00 | 0.00 | 0.00 | 5 | 1016.7 |
| 20260905092802 | 69 | 332 | 8.0 | 11.0 | 0.00 | 0.00 | 0.00 | 5 | 1016.8 |
| 20260905092305 | 69 | 340 | 5.0 | 12.0 | 0.00 | 0.00 | 0.00 | 5 | 1016.5 |
| 20260905091802 | 69 | 221 | 5.0 | 14.0 | 0.00 | 0.00 | 0.00 | 5 | 1016.6 |
| 20260905091302 | 70 | 0 | 7.0 | 14.0 | 0.00 | 0.00 | 0.00 | 5 | 1016.6 |
| 20260905090802 | 70 | 344 | 8.0 | 15.0 | 0.00 | 0.00 | 0.00 | 5 | 1016.5 |
| 20260905090302 | 71 | 338 | 4.0 | 12.0 | 0.00 | 0.00 | 0.00 | 5 | 1016.3 |
| 20260905085802 | 71 | 341 | 4.0 | 11.0 | 0.00 | 0.00 | 0.00 | 5 | 1016.6 |
| 20260905085305 | 71 | 32 | 9.0 | 18.0 | 0.00 | 0.00 | 0.00 | 5 | 1016.1 |
| 20260905084802 | 70 | 317 | 6.0 | 10.0 | 0.00 | 0.00 | 0.00 | 5 | 1016.3 |
| 20260905084302 | 70 | 354 | 13.0 | 19.0 | 0.00 | 0.00 | 0.00 | 5 | 1016.2 |
| 20260905083802 | 69 | 7 | 8.0 | 15.0 | 0.00 | 0.00 | 0.00 | 5 | 1016.4 |
| 20260905083302 | 69 | 331 | 11.0 | 27.0 | 0.00 | 0.00 | 0.00 | 5 | 1016.1 |
| 20260905082802 | 69 | 237 | 14.0 | 25.0 | 0.00 | 0.00 | 0.00 | 6 | 1015.9 |
| 20260905082306 | 69 | 34 | 10.0 | 26.0 | 0.00 | 0.00 | 0.00 | 5 | 1015.7 |
| 20260905081802 | 70 | 327 | 4.0 | 20.0 | 0.00 | 0.00 | 0.00 | 5 | 1015.5 |
| 20260905081302 | 70 | 56 | 10.0 | 25.0 | 0.00 | 0.00 | 0.00 | 5 | 1015.5 |
| 20260905080801 | 70 | 23 | 7.0 | 20.0 | 0.00 | 0.00 | 0.00 | 5 | 1015.5 |
| 20260905080302 | 70 | 349 | 7.0 | 26.0 | 0.00 | 0.00 | 0.00 | 5 | 1015.4 |
| 20260905075801 | 70 | 22 | 4.0 | 21.0 | 0.00 | 0.00 | 0.00 | 5 | 1015.2 |
| 20260905075305 | 69 | 283 | 6.0 | 14.0 | 0.00 | 0.00 | 0.00 | 6 | 1015.0 |
| 20260905074801 | 70 | 4 | 7.0 | 22.0 | 0.00 | 0.00 | 0.00 | 6 | 1014.8 |
| 20260905074301 | 70 | 351 | 4.0 | 9.0 | 0.00 | 0.00 | 0.00 | 5 | 1014.9 |
| 20260905073801 | 70 | 299 | 1.0 | 17.0 | 0.00 | 0.00 | 0.00 | 5 | 1015.0 |
| 20260905073301 | 70 | 281 | 6.0 | 10.0 | 0.00 | 0.00 | 0.00 | 5 | 1014.0 |
| 20260905072801 | 71 | 344 | 12.0 | 15.0 | 0.00 | 0.00 | 0.00 | 5 | 1014.3 |
| 20260905072305 | 71 | 301 | 7.0 | 17.0 | 0.00 | 0.00 | 0.00 | 5 | 1014.0 |
| 20260905071801 | 71 | 300 | 10.0 | 19.0 | 0.00 | 0.00 | 0.00 | 5 | 1014.0 |
| 20260905071301 | 72 | 303 | 8.0 | 25.0 | 0.00 | 0.00 | 0.00 | 5 | 1013.6 |
| 20260905070801 | 73 | 322 | 10.0 | 19.0 | 0.00 | 0.00 | 0.00 | 5 | 1013.2 |
| 20260905070301 | 73 | 262 | 6.0 | 9.0 | 0.00 | 0.00 | 0.00 | 5 | 1013.6 |
| 20260905065801 | 74 | 276 | 6.0 | 14.0 | 0.00 | 0.00 | 0.00 | 5 | 1013.3 |
| 20260905065301 | 74 | 356 | 8.0 | 14.0 | 0.00 | 0.00 | 0.00 | 5 | 1012.9 |
| 20260905064801 | 74 | 332 | 7.0 | 14.0 | 0.00 | 0.00 | 0.00 | 5 | 1012.9 |
| 20260905064301 | 75 | 308 | 5.0 | 15.0 | 0.00 | 0.00 | 0.00 | 5 | 1012.8 |
| 20260905063801 | 75 | 351 | 10.0 | 12.0 | 0.00 | 0.00 | 0.00 | 5 | 1012.7 |
| 20260905063301 | 75 | 328 | 7.0 | 14.0 | 0.00 | 0.00 | 0.00 | 5 | 1012.6 |
| 20260905062801 | 75 | 278 | 4.0 | 17.0 | 0.00 | 0.00 | 0.00 | 5 | 1012.4 |
| 20260905062301 | 75 | 276 | 6.0 | 10.0 | 0.00 | 0.00 | 0.00 | 5 | 1012.5 |
| 20260905061801 | 76 | 10 | 7.0 | 14.0 | 0.00 | 0.00 | 0.00 | 5 | 1012.3 |
| 20260905061301 | 76 | 336 | 6.0 | 12.0 | 0.00 | 0.00 | 0.00 | 5 | 1012.1 |
| 20260905060801 | 76 | 262 | 2.0 | 8.0 | 0.00 | 0.00 | 0.00 | 4 | 1012.0 |
| 20260905060301 | 76 | 283 | 1.0 | 5.0 | 0.00 | 0.00 | 0.00 | 4 | 1012.0 |
| 20260905055801 | 76 | 291 | 1.0 | 5.0 | 0.00 | 0.00 | 0.00 | 4 | 1012.0 |
| 20260905055301 | 77 | 248 | 5.0 | 10.0 | 0.00 | 0.00 | 0.00 | 4 | 1011.8 |
| 20260905054801 | 76 | 310 | 3.0 | 9.0 | 0.00 | 0.00 | 0.00 | 4 | 1012.0 |
| 20260905054301 | 76 | 309 | 2.0 | 8.0 | 0.00 | 0.00 | 0.00 | 4 | 1011.8 |
| 20260905053801 | 76 | 332 | 4.0 | 10.0 | 0.00 | 0.00 | 0.00 | 4 | 1011.8 |
| 20260905053301 | 75 | 227 | 3.0 | 4.0 | 0.00 | 0.00 | 0.00 | 4 | 1012.0 |
| 20260905052801 | 76 | 258 | 3.0 | 5.0 | 0.00 | 0.00 | 0.00 | 4 | 1011.6 |
| 20260905052300 | 76 | 269 | 6.0 | 8.0 | 0.00 | 0.00 | 0.00 | 4 | 1011.5 |
| 20260905051800 | 76 | 282 | 1.0 | 5.0 | 0.00 | 0.00 | 0.00 | 4 | 1011.6 |
| 20260905051300 | 76 | 305 | 2.0 | 5.0 | 0.00 | 0.00 | 0.00 | 4 | 1011.5 |
| 20260905050800 | 76 | 260 | 2.0 | 5.0 | 0.00 | 0.00 | 0.00 | 4 | 1011.6 |
| 20260905050300 | 76 | 284 | 5.0 | 6.0 | 0.00 | 0.00 | 0.00 | 4 | 1011.6 |
| 20260905045800 | 75 | 272 | 3.0 | 5.0 | 0.00 | 0.00 | 0.00 | 4 | 1011.4 |
| 20260905045300 | 75 | 313 | 2.0 | 5.0 | 0.00 | 0.00 | 0.00 | 4 | 1011.3 |
| 20260905044800 | 75 | 270 | 4.0 | 5.0 | 0.00 | 0.00 | 0.00 | 4 | 1011.3 |
| 20260905044300 | 75 | 313 | 3.0 | 5.0 | 0.00 | 0.00 | 0.00 | 4 | 1011.2 |
| 20260905043800 | 75 | 292 | 4.0 | 9.0 | 0.00 | 0.00 | 0.00 | 4 | 1011.2 |
| 20260905043300 | 75 | 305 | 3.0 | 6.0 | 0.00 | 0.00 | 0.00 | 4 | 1011.2 |
| 20260905042800 | 75 | 345 | 4.0 | 12.0 | 0.00 | 0.00 | 0.00 | 4 | 1011.2 |
| 20260905042300 | 75 | 308 | 2.0 | 6.0 | 0.00 | 0.00 | 0.00 | 4 | 1011.2 |
| 20260905041800 | 75 | 7 | 7.0 | 13.0 | 0.00 | 0.00 | 0.00 | 4 | 1011.3 |
| 20260905041300 | 75 | 2 | 3.0 | 11.0 | 0.00 | 0.00 | 0.00 | 4 | 1011.1 |
| 20260905040800 | 75 | 344 | 3.0 | 13.0 | 0.00 | 0.00 | 0.00 | 4 | 1011.0 |
| 20260905040300 | 75 | 24 | 4.0 | 6.0 | 0.00 | 0.00 | 0.00 | 4 | 1011.0 |
| 20260905035800 | 75 | 330 | 4.0 | 10.0 | 0.00 | 0.00 | 0.00 | 4 | 1011.1 |
| 20260905035300 | 75 | 328 | 4.0 | 9.0 | 0.00 | 0.00 | 0.00 | 4 | 1010.8 |
| 20260905034800 | 75 | 119 | 7.0 | 15.0 | 0.00 | 0.00 | 0.00 | 5 | 1010.9 |
| 20260905034300 | 74 | 248 | 5.0 | 13.0 | 0.00 | 0.00 | 0.00 | 5 | 1011.0 |
| 20260905033800 | 74 | 266 | 6.0 | 11.0 | 0.00 | 0.00 | 0.00 | 5 | 1010.8 |
| 20260905033300 | 74 | 292 | 3.0 | 10.0 | 0.00 | 0.00 | 0.00 | 5 | 1010.8 |
| 20260905032800 | 74 | 295 | 2.0 | 13.0 | 0.00 | 0.00 | 0.00 | 5 | 1010.8 |
| 20260905032300 | 73 | 248 | 4.0 | 9.0 | 0.00 | 0.00 | 0.00 | 5 | 1011.1 |
| 20260905031800 | 73 | 325 | 5.0 | 10.0 | 0.00 | 0.00 | 0.00 | 5 | 1011.1 |
| 20260905031300 | 73 | 323 | 4.0 | 9.0 | 0.00 | 0.00 | 0.00 | 5 | 1011.3 |
| 20260905030800 | 73 | 235 | 4.0 | 8.0 | 0.00 | 0.00 | 0.00 | 5 | 1011.2 |
| 20260905030300 | 73 | 289 | 4.0 | 9.0 | 0.00 | 0.00 | 0.00 | 5 | 1011.2 |
| 20260905025800 | 73 | 288 | 7.0 | 12.0 | 0.00 | 0.00 | 0.00 | 5 | 1011.3 |
| 20260905025259 | 73 | 267 | 4.0 | 8.0 | 0.00 | 0.00 | 0.00 | 5 | 1011.1 |
| 20260905024759 | 73 | 251 | 4.0 | 9.0 | 0.00 | 0.00 | 0.00 | 5 | 1011.0 |
| 20260905024300 | 73 | 284 | 4.0 | 8.0 | 0.00 | 0.00 | 0.00 | 5 | 1011.2 |
| 20260905023759 | 74 | 274 | 4.0 | 9.0 | 0.00 | 0.00 | 0.00 | 5 | 1011.3 |
| 20260905023259 | 74 | 333 | 6.0 | 12.0 | 0.00 | 0.00 | 0.00 | 5 | 1011.1 |
| 20260905022759 | 74 | 273 | 3.0 | 8.0 | 0.00 | 0.00 | 0.00 | 5 | 1011.0 |
| 20260905022259 | 74 | 336 | 4.0 | 10.0 | 0.00 | 0.00 | 0.00 | 5 | 1011.1 |
| 20260905021759 | 74 | 296 | 4.0 | 11.0 | 0.00 | 0.00 | 0.00 | 5 | 1011.2 |
| 20260905021259 | 73 | 283 | 5.0 | 11.0 | 0.00 | 0.00 | 0.00 | 5 | 1011.4 |
| 20260905020759 | 73 | 258 | 6.0 | 14.0 | 0.00 | 0.00 | 0.00 | 5 | 1011.1 |
| 20260905020259 | 73 | 268 | 5.0 | 9.0 | 0.00 | 0.00 | 0.00 | 5 | 1011.3 |
| 20260905015759 | 73 | 271 | 6.0 | 12.0 | 0.00 | 0.00 | 0.00 | 5 | 1011.4 |
| 20260905015259 | 73 | 283 | 7.0 | 14.0 | 0.00 | 0.00 | 0.00 | 5 | 1011.3 |
| 20260905014759 | 73 | 259 | 3.0 | 9.0 | 0.00 | 0.00 | 0.00 | 5 | 1011.3 |
| 20260905014259 | 73 | 255 | 7.0 | 10.0 | 0.00 | 0.00 | 0.00 | 5 | 1011.3 |
| 20260905013759 | 73 | 257 | 3.0 | 11.0 | 0.00 | 0.00 | 0.00 | 5 | 1010.9 |
| 20260905013259 | 73 | 311 | 6.0 | 11.0 | 0.00 | 0.00 | 0.00 | 5 | 1010.9 |
| 20260905012759 | 73 | 264 | 4.0 | 11.0 | 0.00 | 0.00 | 0.00 | 5 | 1011.1 |
| 20260905012259 | 73 | 307 | 6.0 | 10.0 | 0.00 | 0.00 | 0.00 | 5 | 1010.9 |
| 20260905011759 | 73 | 300 | 6.0 | 11.0 | 0.00 | 0.00 | 0.00 | 5 | 1011.1 |
| 20260905011259 | 73 | 276 | 5.0 | 9.0 | 0.00 | 0.00 | 0.00 | 5 | 1010.8 |
| 20260905010759 | 73 | 243 | 5.0 | 9.0 | 0.00 | 0.00 | 0.00 | 5 | 1010.9 |
| 20260905010259 | 72 | 248 | 6.0 | 12.0 | 0.00 | 0.00 | 0.00 | 5 | 1011.0 |
| 20260905005759 | 72 | 278 | 9.0 | 14.0 | 0.00 | 0.00 | 0.00 | 5 | 1010.9 |
| 20260905005259 | 72 | 291 | 5.0 | 13.0 | 0.00 | 0.00 | 0.00 | 5 | 1010.8 |
| 20260905004759 | 72 | 296 | 7.0 | 10.0 | 0.00 | 0.00 | 0.00 | 5 | 1010.8 |
| 20260905004259 | 72 | 311 | 6.0 | 11.0 | 0.00 | 0.00 | 0.00 | 5 | 1010.9 |
| 20260905003759 | 72 | 289 | 6.0 | 18.0 | 0.00 | 0.00 | 0.00 | 5 | 1010.8 |
| 20260905003259 | 72 | 265 | 9.0 | 12.0 | 0.00 | 0.00 | 0.00 | 5 | 1010.7 |
| 20260905002759 | 73 | 307 | 4.0 | 14.0 | 0.00 | 0.00 | 0.00 | 5 | 1010.6 |
| 20260905002258 | 73 | 286 | 8.0 | 13.0 | 0.00 | 0.00 | 0.00 | 5 | 1010.6 |
| 20260905001758 | 73 | 256 | 3.0 | 8.0 | 0.00 | 0.00 | 0.00 | 5 | 1010.8 |
| 20260905001259 | 73 | 245 | 4.0 | 13.0 | 0.00 | 0.00 | 0.00 | 5 | 1010.9 |
| 20260905000758 | 73 | 261 | 4.0 | 15.0 | 0.00 | 0.00 | 0.00 | 5 | 1011.1 |
| 20260905000258 | 73 | 277 | 8.0 | 14.0 | 0.00 | 0.00 | 0.00 | 5 | 1011.0 |
| 20260904235758 | 73 | 252 | 5.0 | 12.0 | 0.00 | 0.00 | 0.00 | 5 | 1011.1 |
| 20260904235258 | 73 | 277 | 5.0 | 13.0 | 0.00 | 0.00 | 0.00 | 5 | 1011.1 |
| 20260904234758 | 73 | 193 | 4.0 | 8.0 | 0.00 | 0.00 | 0.00 | 5 | 1011.0 |
| 20260904234258 | 73 | 268 | 6.0 | 13.0 | 0.00 | 0.00 | 0.00 | 5 | 1011.2 |
| 20260904233758 | 73 | 273 | 5.0 | 18.0 | 0.00 | 0.00 | 0.00 | 5 | 1011.1 |
| 20260904233258 | 73 | 272 | 5.0 | 12.0 | 0.00 | 0.00 | 0.00 | 5 | 1011.3 |
| 20260904232758 | 74 | 221 | 6.0 | 10.0 | 0.00 | 0.00 | 0.00 | 5 | 1011.2 |
| 20260904232258 | 74 | 262 | 7.0 | 15.0 | 0.00 | 0.00 | 0.00 | 4 | 1011.2 |
| 20260904231758 | 74 | 288 | 3.0 | 17.0 | 0.00 | 0.00 | 0.00 | 4 | 1011.1 |